Regional Weather Roundup
Issued by NWS Northern Indiana

Home | Current Version | Previous Version | Graphics & Text | Print | Product List | Glossary On
Versions: 1 2 3 4 5 6 7 8 9 10 11 12 13 14 15 16 17 18 19 20 21 22 23 24 25 26 27 28 29 30 31 32 33 34 35 36 37 38 39 40 41 42 43 44 45 46 47 48 49 50
000
ASUS43 KIWX 071010
RWRIWX

KIWX WEATHER ROUNDUP
NATIONAL WEATHER SERVICE NORTHERN INDIANA
500 AM EST SUN FEB 07 2016

NOTE: "FAIR" INDICATES FEW OR NO CLOUDS BELOW 12,000 FEET WITH NO
SIGNIFICANT WEATHER AND/OR OBSTRUCTIONS TO VISIBILITY.

* THESE STATIONS ARE NOT UNDER NWS QUALITY CONTROL. THEY ALSO MAY NOT
  REPORT WEATHER SUCH AS PRECIPITATION OR FOG.

INZ001>027-071100-
NORTHERN INDIANA

CITY           SKY/WX    TMP DP  RH WIND       PRES   REMARKS
VALPARAISO     CLOUDY    34  29  82 S7        29.99F WCI  28
MICHIGAN CITY* CLOUDY    36  30  80 S8        29.99F
LAPORTE*       CLOUDY    34  32  92 S5        30.00F WCI  30
SOUTH BEND     CLOUDY    34  27  75 SW10      30.00F WCI  26
GOSHEN         CLOUDY    34  26  72 SW10      30.01F WCI  26
MONTICELLO*    CLOUDY    33  23  67 S8        30.04F WCI  26
LOGANSPORT*    PTCLDY    32  25  74 SW10      30.06F WCI  24
ROCHESTER*     MOCLDY    36  25  64 SW8       30.04F
WARSAW*        PTCLDY    32  27  80 CALM      30.03F
FORT WAYNE     PTCLDY    31  26  82 SW10      30.06F WCI  22
HUNTINGTON*    MOCLDY    35  22  60 SW9       30.05F WCI  27
PERU/GRISSOM   CLEAR     33  26  75 SW12      30.04F WCI  25
MARION*        CLEAR     32  19  59 SW10      30.07F WCI  24

$$
INZ028>050-071100-
CENTRAL INDIANA

CITY           SKY/WX    TMP DP  RH WIND       PRES   REMARKS
LAFAYETTE      PTCLDY    34  24  67 CALM      30.06F
KOKOMO*          N/A     36  25  64 SW12      30.06F
MUNCIE*        CLEAR     38  23  55 SW8       30.07F
INDIANAPOLIS   CLEAR     35  23  61 SW12      30.09F WCI  27

$$
MIZ043>046-050>051-056>058-064>065-071>073-077>080-071100-
SOUTHWEST LOWER MICHIGAN

CITY           SKY/WX    TMP DP  RH WIND       PRES   REMARKS
BATTLE CREEK   PTCLDY    33  27  78 S8        29.99F WCI  26
BENTON HARBOR  CLOUDY    36  29  75 S8        29.97F
COLDWATER*     PTCLDY    34  27  76 S3        30.00F
HILLSDALE*     CLEAR     29  25  85 S6        30.01F WCI  23
HOLLAND        CLOUDY    34  29  82 S8        29.95F WCI  27
GRAND RAPIDS   CLOUDY    33  28  81 S9        29.95F WCI  25
KALAMAZOO      CLOUDY    32  26  78 S7        29.98F WCI  26
STURGIS*       PTCLDY    32  28  83 SW7       30.00F WCI  26
THREE RIVERS*  FAIR      31  28  88 S5        30.00F WCI  26

$$
OHZ001>008-015>018-024>025-071100-
NORTHWEST OHIO

CITY           SKY/WX    TMP DP  RH WIND       PRES   REMARKS
DEFIANCE       CLEAR     31  24  75 S8        30.06F WCI  23
FINDLAY        MOCLDY    34  26  72 S13       30.07F WCI  25
TOLEDO EXPRESS CLOUDY    32  24  72 S8        30.06F WCI  25
TOLEDO METCALF MOCLDY    33  25  72 S7        30.07F WCI  27
LIMA           CLEAR     34  25  69 S9        30.07F WCI  27

$$
AND FOR LAKE MICHIGAN COASTAL AND OPEN LAKE BUOY OBSERVATIONS

STATION/POSITION TEMP    WIND        PRES    VSBY  WAVE
                 AIR SEA DIR/SP/G                  HT/PER
                 (F)     (DEG/KT/KT) (MB)    (MI)  (FT/S)
CALUMET HARBOR    37     180/  6/  8 1015.0F
MICHIGAN CITY     37     160/ 14/ 16   N/A
BURNS HARBOR      38     190/ 13/ 17 1016.6F
SAINT JOSEPH      38     160/  9/ 14 1015.2F

$$
&&



USA.gov is the U.S. government's official web portal to all federal, state and local government web resources and services.